{"data":{"norad_id":66858,"epoch":"2026-09-20T20:43:08.425344Z","epoch_age_seconds":52763,"freshness":"FRESH","line1":"1 66858U 25281L   26263.86329196  .00010868  00000+0  40380-3 0  9994","line2":"2 66858  43.0021 321.3373 0001373 287.7535  72.3166 15.27587066 46033","mean_motion":15.27587066,"eccentricity":0.0001373,"inclination_deg":43.0021,"raan_deg":321.3373,"arg_perigee_deg":287.7535,"mean_anomaly_deg":72.3166,"bstar":0.0004038,"rev_number":4603,"period_min":94.266312673794,"perigee_km":482.08590002925,"apogee_km":483.96997592121,"semimajor_km":6861.1649379752,"source":"CELESTRAK","updated_at":"2026-09-21T09:00:36.027668Z"}}